Location: Ferchesar
(52.6477°N, 12.4298°E)
Time: 20:09:19
(UTC+01:00)

A-11 Canister half - Pass Details

Date: 09 December 2021
Orbit: 1516 x 1684 km, 47.2° (Epoch: 23 January)

Event Time Altitude Azimuth Distance (km) Brightness Sun altitude
Rises 04:19:41 0° 191° (S) 4,707 11.4 -33.4°
Reaches altitude 10° 04:23:38 10° 177° (S) 3,753 11.0 -32.8°
Maximum altitude 04:30:16 22° 132° (SE) 2,986 10.9 -31.8°
Drops below altitude 10° 04:37:02 10° 87° (E) 3,859 12.0 -30.8°
Sets 04:41:08 0° 74° (ENE) 4,876 12.7 -30.2°
